TimeEST,TemperatureF,Dew PointF,Humidity,Sea Level PressureIn,VisibilityMPH,Wind Direction,Wind SpeedMPH,Gust SpeedMPH,PrecipitationIn,Events,Conditions,WindDirDegrees,DateUTC
12:55 AM,47.1,46.9,99,30.25,8.0,Calm,Calm,-,N/A,,Scattered Clouds,0,2012-12-04 05:55:00
1:55 AM,48.2,47.8,99,30.25,10.0,Calm,Calm,-,N/A,,Overcast,0,2012-12-04 06:55:00
2:55 AM,49.3,48.9,99,30.25,10.0,Calm,Calm,-,N/A,,Overcast,0,2012-12-04 07:55:00
3:55 AM,49.5,48.6,97,30.23,10.0,Calm,Calm,-,N/A,,Overcast,0,2012-12-04 08:55:00
4:55 AM,49.8,48.9,97,30.23,10.0,Calm,Calm,-,N/A,,Overcast,0,2012-12-04 09:55:00
5:55 AM,49.5,48.6,97,30.23,10.0,Calm,Calm,-,N/A,,Mostly Cloudy,0,2012-12-04 10:55:00
6:55 AM,49.1,48.7,99,30.24,10.0,Calm,Calm,-,N/A,,Overcast,0,2012-12-04 11:55:00
7:55 AM,50.7,50.4,99,30.25,10.0,Calm,Calm,-,N/A,,Overcast,0,2012-12-04 12:55:00
8:55 AM,54.1,52.5,94,30.26,10.0,Calm,Calm,-,N/A,,Overcast,0,2012-12-04 13:55:00
9:55 AM,59.4,53.4,81,30.26,10.0,Calm,Calm,-,N/A,,Partly Cloudy,0,2012-12-04 14:55:00
10:55 AM,62.6,53.2,71,30.24,10.0,SSE,4.6,-,N/A,,Partly Cloudy,150,2012-12-04 15:55:00
11:55 AM,66.0,52.0,60,30.21,10.0,Variable,3.5,-,N/A,,Clear,0,2012-12-04 16:55:00
12:55 PM,69.6,52.0,53,30.17,10.0,Variable,4.6,-,N/A,,Clear,0,2012-12-04 17:55:00
1:55 PM,71.2,50.4,48,30.13,10.0,South,8.1,-,N/A,,Clear,180,2012-12-04 18:55:00
2:55 PM,72.5,48.4,42,30.12,10.0,Variable,6.9,-,N/A,,Clear,0,2012-12-04 19:55:00
3:55 PM,70.2,49.6,48,30.12,10.0,South,6.9,-,N/A,,Clear,170,2012-12-04 20:55:00
4:55 PM,66.9,49.3,53,30.11,10.0,SSE,4.6,-,N/A,,Clear,150,2012-12-04 21:55:00
5:55 PM,63.3,49.3,60,30.11,10.0,Calm,Calm,-,N/A,,Clear,0,2012-12-04 22:55:00
6:55 PM,64.0,48.7,57,30.10,10.0,Variable,3.5,-,N/A,,Clear,0,2012-12-04 23:55:00
7:55 PM,64.0,48.6,57,30.10,10.0,Variable,3.5,-,N/A,,Overcast,0,2012-12-05 00:55:00
8:55 PM,64.4,48.6,56,30.09,10.0,Variable,3.5,-,N/A,,Overcast,0,2012-12-05 01:55:00
9:55 PM,63.9,48.6,57,30.07,10.0,Variable,3.5,-,N/A,,Overcast,0,2012-12-05 02:55:00
10:55 PM,62.8,47.7,58,30.06,10.0,Variable,3.5,-,N/A,,Scattered Clouds,0,2012-12-05 03:55:00
11:55 PM,62.6,47.3,57,30.04,10.0,Variable,4.6,-,N/A,,Mostly Cloudy,0,2012-12-05 04:55:00